TimeMST,TemperatureF,Dew PointF,Humidity,Sea Level PressureIn,VisibilityMPH,Wind Direction,Wind SpeedMPH,Gust SpeedMPH,PrecipitationIn,Events,Conditions,WindDirDegrees,DateUTC
12:15 AM,23.0,14.0,68,30.03,10.0,WNW,11.5,-,N/A,,Clear,290,2014-02-14 07:15:00
12:35 AM,21.2,14.0,74,30.05,10.0,WNW,11.5,-,N/A,,Clear,300,2014-02-14 07:35:00
12:55 AM,17.6,12.2,79,30.06,10.0,West,6.9,-,N/A,,Clear,270,2014-02-14 07:55:00
1:15 AM,19.4,12.2,74,30.06,10.0,WNW,5.8,-,N/A,,Clear,300,2014-02-14 08:15:00
1:35 AM,15.8,10.4,79,30.06,10.0,WNW,5.8,-,N/A,,Clear,300,2014-02-14 08:35:00
1:55 AM,14.0,10.4,86,30.07,10.0,NW,4.6,-,N/A,,Clear,320,2014-02-14 08:55:00
2:15 AM,15.8,10.4,79,30.08,10.0,NNW,5.8,-,N/A,,Clear,340,2014-02-14 09:15:00
2:35 AM,14.0,8.6,79,30.07,10.0,WSW,6.9,-,N/A,,Clear,250,2014-02-14 09:35:00
2:55 AM,14.0,10.4,86,30.06,10.0,NW,5.8,-,N/A,,Clear,310,2014-02-14 09:55:00
3:15 AM,12.2,8.6,85,30.06,10.0,WNW,5.8,-,N/A,,Clear,300,2014-02-14 10:15:00
3:35 AM,10.4,6.8,85,30.06,10.0,WNW,4.6,-,N/A,,Clear,300,2014-02-14 10:35:00
3:55 AM,12.2,8.6,85,30.06,10.0,West,4.6,-,N/A,,Clear,280,2014-02-14 10:55:00
4:15 AM,12.2,8.6,85,30.07,10.0,Calm,Calm,-,N/A,,Clear,0,2014-02-14 11:15:00
4:35 AM,12.2,8.6,85,30.07,10.0,Calm,Calm,-,N/A,,Scattered Clouds,0,2014-02-14 11:35:00
4:55 AM,14.0,8.6,79,30.07,10.0,WSW,3.5,-,N/A,,Clear,250,2014-02-14 11:55:00
5:15 AM,12.2,8.6,85,30.08,10.0,Calm,Calm,-,N/A,,Clear,0,2014-02-14 12:15:00
5:35 AM,10.4,6.8,85,30.08,10.0,Calm,Calm,-,N/A,,Scattered Clouds,0,2014-02-14 12:35:00
5:55 AM,12.2,6.8,79,30.08,10.0,WNW,5.8,-,N/A,,Overcast,290,2014-02-14 12:55:00
6:15 AM,10.4,6.8,85,30.09,10.0,WNW,5.8,-,N/A,,Overcast,300,2014-02-14 13:15:00
6:35 AM,14.0,8.6,79,30.07,10.0,NNW,4.6,-,N/A,,Overcast,340,2014-02-14 13:35:00
6:55 AM,12.2,6.8,79,30.07,10.0,West,4.6,-,N/A,,Overcast,280,2014-02-14 13:55:00
7:15 AM,12.2,8.6,85,30.07,10.0,West,3.5,-,N/A,,Overcast,270,2014-02-14 14:15:00
7:35 AM,12.2,10.4,92,30.08,10.0,WNW,4.6,-,N/A,,Overcast,300,2014-02-14 14:35:00
7:55 AM,14.0,10.4,86,30.09,10.0,NW,3.5,-,N/A,,Overcast,310,2014-02-14 14:55:00
8:15 AM,15.8,10.4,79,30.08,10.0,NW,3.5,-,N/A,,Overcast,320,2014-02-14 15:15:00
8:35 AM,17.6,10.4,73,30.09,10.0,Calm,Calm,-,N/A,,Overcast,0,2014-02-14 15:35:00
8:55 AM,17.6,12.2,79,30.09,10.0,West,5.8,-,N/A,,Overcast,270,2014-02-14 15:55:00
9:15 AM,19.4,12.2,74,30.08,10.0,West,5.8,-,N/A,,Overcast,270,2014-02-14 16:15:00
9:35 AM,21.2,12.2,68,30.07,10.0,West,4.6,-,N/A,,Overcast,270,2014-02-14 16:35:00
9:55 AM,21.2,12.2,68,30.07,10.0,NW,3.5,-,N/A,,Overcast,310,2014-02-14 16:55:00
10:15 AM,23.0,14.0,68,30.07,10.0,NW,3.5,-,N/A,,Overcast,310,2014-02-14 17:15:00
10:35 AM,24.8,14.0,64,30.06,10.0,Calm,Calm,-,N/A,,Overcast,0,2014-02-14 17:35:00
10:55 AM,26.6,14.0,59,30.06,10.0,NW,3.5,-,N/A,,Overcast,310,2014-02-14 17:55:00
11:15 AM,28.4,14.0,55,30.06,10.0,WNW,3.5,-,N/A,,Overcast,290,2014-02-14 18:15:00
11:35 AM,30.2,17.6,60,30.06,10.0,Calm,Calm,-,N/A,,Overcast,0,2014-02-14 18:35:00
11:55 AM,32.0,17.6,55,30.05,10.0,Calm,Calm,-,N/A,,Overcast,0,2014-02-14 18:55:00
12:15 PM,30.2,17.6,60,30.03,10.0,Calm,Calm,-,N/A,,Overcast,0,2014-02-14 19:15:00
12:35 PM,30.2,19.4,64,30.03,5.0,Calm,Calm,-,N/A,,Overcast,0,2014-02-14 19:35:00
12:55 PM,30.2,21.2,69,30.03,1.5,Calm,Calm,-,N/A,Snow,Light Snow,0,2014-02-14 19:55:00
1:15 PM,30.2,23.0,75,30.01,2.0,Calm,Calm,-,N/A,,Overcast,0,2014-02-14 20:15:00
1:35 PM,30.2,23.0,75,30.02,2.5,Calm,Calm,-,N/A,Rain,Freezing Rain,0,2014-02-14 20:35:00
1:55 PM,28.4,23.0,80,30.01,2.5,Calm,Calm,-,N/A,Snow,Light Snow,0,2014-02-14 20:55:00
2:15 PM,28.4,23.0,80,30.01,3.0,East,3.5,-,N/A,Snow,Light Snow,90,2014-02-14 21:15:00
2:35 PM,28.4,23.0,80,29.98,7.0,SSE,4.6,-,N/A,Snow,Light Snow,160,2014-02-14 21:35:00
2:55 PM,28.4,23.0,80,29.98,5.0,SE,4.6,-,N/A,Snow,Light Snow,130,2014-02-14 21:55:00
3:15 PM,28.4,23.0,80,29.98,7.0,East,3.5,-,N/A,Snow,Light Snow,100,2014-02-14 22:15:00
3:35 PM,28.4,23.0,80,29.98,10.0,East,3.5,-,N/A,Snow,Light Snow,100,2014-02-14 22:35:00
3:55 PM,28.4,23.0,80,29.97,10.0,Calm,Calm,-,N/A,Snow,Light Snow,0,2014-02-14 22:55:00
4:15 PM,28.4,24.8,86,29.97,1.5,East,3.5,-,N/A,Snow,Light Snow,80,2014-02-14 23:15:00
4:35 PM,28.4,26.6,93,29.97,1.0,East,3.5,-,N/A,Snow,Light Snow,90,2014-02-14 23:35:00
4:55 PM,28.4,26.6,93,29.97,1.2,Calm,Calm,-,N/A,Snow,Light Snow,0,2014-02-14 23:55:00
5:15 PM,28.4,26.6,93,29.97,1.0,Calm,Calm,-,N/A,Snow,Light Snow,0,2014-02-15 00:15:00
5:35 PM,28.4,26.6,93,29.97,0.8,Calm,Calm,-,N/A,Snow,Light Snow,0,2014-02-15 00:35:00
5:55 PM,26.6,26.6,100,29.97,1.0,Calm,Calm,-,N/A,Snow,Light Snow,0,2014-02-15 00:55:00
6:15 PM,26.6,26.6,100,29.95,1.8,Calm,Calm,-,N/A,Snow,Light Snow,0,2014-02-15 01:15:00
6:35 PM,28.4,28.4,100,29.95,1.8,Calm,Calm,-,N/A,Snow,Light Snow,0,2014-02-15 01:35:00
6:55 PM,28.4,28.4,100,29.95,1.8,Calm,Calm,-,N/A,Snow,Light Snow,0,2014-02-15 01:55:00
7:15 PM,28.4,28.4,100,29.95,1.8,Calm,Calm,-,N/A,Snow,Light Snow,0,2014-02-15 02:15:00
7:35 PM,28.4,28.4,100,29.93,2.0,Calm,Calm,-,N/A,Snow,Light Snow,0,2014-02-15 02:35:00
7:55 PM,28.4,28.4,100,29.93,3.0,Calm,Calm,-,N/A,Snow,Light Snow,0,2014-02-15 02:55:00
8:15 PM,28.4,28.4,100,29.93,5.0,Calm,Calm,-,N/A,Snow,Light Snow,0,2014-02-15 03:15:00
8:35 PM,28.4,28.4,100,29.92,3.0,Calm,Calm,-,N/A,Snow,Light Snow,0,2014-02-15 03:35:00
8:55 PM,28.4,28.4,100,29.92,2.5,Calm,Calm,-,N/A,Snow,Light Snow,0,2014-02-15 03:55:00
9:15 PM,28.4,28.4,100,29.90,2.0,Calm,Calm,-,N/A,Snow,Light Snow,0,2014-02-15 04:15:00
9:35 PM,28.4,28.4,100,29.90,4.0,Calm,Calm,-,N/A,Snow,Light Snow,0,2014-02-15 04:35:00
9:55 PM,28.4,28.4,100,29.90,3.0,Calm,Calm,-,N/A,Snow,Light Snow,0,2014-02-15 04:55:00
10:15 PM,28.4,28.4,100,29.90,1.5,SSE,3.5,-,N/A,Snow,Light Snow,150,2014-02-15 05:15:00
10:35 PM,30.2,30.2,100,29.89,2.0,Calm,Calm,-,N/A,Snow,Light Snow,0,2014-02-15 05:35:00
10:55 PM,30.2,30.2,100,29.88,7.0,Calm,Calm,-,N/A,Snow,Light Snow,0,2014-02-15 05:55:00
11:15 PM,30.2,30.2,100,29.88,1.5,Calm,Calm,-,N/A,Snow,Light Snow,0,2014-02-15 06:15:00
11:35 PM,30.2,30.2,100,29.88,3.0,Calm,Calm,-,N/A,Snow,Light Snow,0,2014-02-15 06:35:00
11:55 PM,30.2,30.2,100,29.88,4.0,Calm,Calm,-,N/A,Snow,Light Snow,0,2014-02-15 06:55:00